Regional Weather Roundup
Issued by NWS Goodland, KS

Home | Current Version | Previous Version | Graphics & Text | Print | Product List | Glossary On
Versions: 1 2 3 4 5 6 7 8 9 10 11 12 13 14 15 16 17 18 19 20 21 22 23 24 25 26 27 28 29 30 31 32 33 34 35 36 37 38 39 40 41 42 43 44 45 46 47 48 49 50
001
ASUS43 KGLD 301259
RWRGLD

GOODLAND FORECAST AREA HOURLY WEATHER ROUNDUP
NATIONAL WEATHER SERVICE GOODLAND KS
700 AM MDT TUE AUG 30 2016

...OFFICIAL OBSERVATIONS...

CITY           SKY/WX    TMP DP  RH WIND       PRES   REMARKS
GOODLAND KS    MOCLDY    60  60 100 CALM      30.26S FOG
HILL CITY KS   CLOUDY    67  66  97 CALM      30.24R FOG
IMPERIAL NEB   CLOUDY    62  61  96 E5        30.26R
MCCOOK NEB     CLOUDY    66  65  96 CALM      30.24R FOG
AKRON CO       CLOUDY    57  51  80 W7        30.30R
BURLINGTON CO  FOG       60  58  92 W7        30.28S VSB<1/4
LIMON CO       CLOUDY    51  48  89 N5        30.35R
$$

...UNOFFICIAL OBSERVATIONS...

CITY           SKY/WX    TMP DP  RH WIND       PRES   REMARKS
COLBY KS       CLOUDY    64  64 100 CALM      30.27S FOG
LENORA KS        N/A     66  32  28 MISG        N/A
NORTON KS      LGT RAIN  64  63  94 CALM      30.24R
SHARON SPRINGS   N/A     62  60  95 CALM        N/A
TRENTON NEB      N/A     66  32  28 MISG        N/A
YUMA CO          N/A     53  51  92 CALM        N/A
$$




USA.gov is the U.S. government's official web portal to all federal, state and local government web resources and services.